Вернуться в каталог

STARLINK-31586

АктивенСвязьVLEO
NORAD 59205·PAYLOAD·🇺🇸 United States

Запущен Mar 11, 2024 с Vandenberg Space Force Base

Loading…

Ближайшие Пролёты (ближайшие 24 часа)

TLE

СвежийSource: CelesTrak SupGP

Эпоха: Sep 15, 2026, 01:48 UTC

1 59205C 24046E   26258.07548611  .00055315  00000+0  16346-2 0  2580
2 59205  53.1584 354.7216 0001024  87.1095  93.4040 15.34356463    15

Отслеживайте STARLINK-31586 в реальном времени с AllMySat

Download on the App Store